Notices

What's New in latest Release from April 7th, 2021:

- Updated Glossary, including Speed of Maximum Gust, and Total Hourly Precipitation

- Updated national and regional climate services offices contacts and prices information

- Addition of station inventory lists for 1981-2010, 1971-2000, and 1961-1990 Normals.

If you haven't already, please take our survey and provide feedback about our website: https://eccc.sondage-survey.ca/f/LanguageSelection.aspx?s=442ca660-fcf1-47c0-95a9-59707d6fd709

Hourly Data Report for April 05, 2012

MIRAMICHI RCS
NEW BRUNSWICK

47°00'34.000" N
65°27'54.000" W
33.00 m
8100989
71744
ACQ

Download Data

Hourly Data (April 2012)
Hourly Data Report for April 5, 2012
TIME
LST
Temp Definition
°C
Dew Point Definition
°C
Rel Hum Definition
%
Precip. Amount Definition
mm

Wind Dir Definition
10's deg

Wind Spd Definition
km/h
Visibility Definition
km
Stn Press Definition
kPa
Hmdx Definition


Wind Chill Definition


Weather Definition


00:00 2.1 -2.6 71   31 11   98.96     LegendNANA
01:00 1.9 -2.2 74   31 11   98.96     LegendNANA
02:00 1.8 -2.2 75   30 9   98.98     LegendNANA
03:00 2.0 -2.2 74   29 9   98.99     LegendNANA
04:00 2.2 -2.7 70   29 9   99.01     LegendNANA
05:00 1.9 -3.3 68   28 9   99.07     LegendNANA
06:00 1.5 -4.1 66   28 11   99.13     LegendNANA
07:00 1.8 -4.1 65   28 11   99.18     LegendNANA
08:00 3.8 -6.0 49   31 15   99.20     LegendNANA
09:00 5.1 -7.1 41   32 19   99.23     LegendNANA
10:00 5.6 -6.1 43   30 24   99.24     LegendNANA
11:00 5.5 -5.9 44   29 28   99.27     LegendNANA
12:00 6.5 -6.9 38   30 24   99.30     LegendNANA
13:00 6.9 -7.0 36   28 19   99.33     LegendNANA
14:00 6.0 -7.8 36   31 22   99.40     LegendNANA
15:00 5.5 -6.9 40   30 19   99.47     LegendNANA
16:00 5.4 -6.4 42   28 13   99.50     LegendNANA
17:00 4.8 -6.5 44   28 19   99.57     LegendNANA
18:00 4.4 -6.2 46   27 15   99.62     LegendNANA
19:00 4.0 -5.8 49   29 13   99.70     LegendNANA
20:00 3.6 -5.7 51   27 9   99.77     LegendNANA
21:00 3.0 -4.9 56   25 15   99.80     LegendNANA
22:00 1.9 -4.4 63   26 13   99.83     LegendNANA
23:00 0.7 -4.5 68   25 9   99.86     LegendNANA

Notes on Data Quality.

Legend

  • E = Estimated
  • M = Missing
  • NA = Not Available*
  • [empty] = Indicates an unobserved value
Date modified: